Flag for Canada Weather past 2 weeks in Shawinigan, Quebec, Canada

Now
26 °F

Chilly.


Feels Like: 22 °F
Forecast: 9 / 33 °F
Wind: 3 mph from North

Location: Shawinigan CS

Current Time: Mar 28, 2015 at 8:38:52 PM

Latest Report: Mar 28, 2015 at 8:00 PM


Visibility: N/A

Pressure: 30.01 "Hg

Humidity: 21%

Dew point: -8 °F

Location of ShawiniganLocation

Historic Weather in Shawinigan — Graph

°F

Shawinigan temperature yesterday

Maximum temperature yesterday: 35 °F (at 1:00 AM)
Minimum temperature yesterday: 23 °F (at 11:00 PM)
Average temperature yesterday: 30 °F

Past Weeks' High & Low Weather Summary

 TemperatureHumidityPressure
High40 °F (Mar 26, 2:00 PM)100% (Mar 15, 6:00 AM)30.39 "Hg (Mar 15, 6:00 AM)
Low-1 °F (Mar 22, 7:00 AM)17% (Mar 28, 6:00 PM)29.45 "Hg (Mar 17, 10:00 AM)
Average22 °F60%29.99 "Hg
* Reported Mar 13 7:00 PM — Mar 28 7:00 PM, Shawinigan, Weather by CustomWeather, © 2015

Note: Actual official high and low records may vary slightly from our data, if they occured in-between our weather recording intervals... More about our weather records

Advertising

Shawinigan weather history for previous 24 hours

 ConditionsComfort  
Time TempWeatherWind HumidityBarometerVisibility
7:00 PM
Sat, Mar 28
28 °FChilly.6 mph21%29.99 "HgN/A
6:00 PM31 °FChilly.10 mph17%29.97 "HgN/A
5:00 PM31 °FChilly.12 mph20%29.96 "HgN/A
4:00 PM29 °FChilly.7 mph21%29.97 "HgN/A
3:00 PM28 °FChilly.7 mph26%29.98 "HgN/A
2:00 PM26 °FChilly.8 mph26%29.99 "HgN/A
1:00 PM24 °FCold.10 mph31%30.01 "HgN/A
12:00 PM21 °FCold.10 mph35%30.03 "HgN/A
11:00 AM18 °FCold.10 mph39%30.04 "HgN/A
10:00 AM15 °FCold.7 mph38%30.05 "HgN/A
9:00 AM12 °FCold.10 mph43%30.05 "HgN/A
8:00 AM11 °FCold.10 mph46%30.03 "HgN/A
7:00 AM11 °FCold.12 mph48%30.02 "HgN/A
6:00 AM12 °FCold.13 mph47%30.00 "HgN/A
5:00 AM13 °FCold.12 mph47%29.99 "HgN/A
4:00 AM14 °FCold.13 mph46%29.98 "HgN/A
3:00 AM15 °FCold.10 mph48%29.97 "HgN/A
2:00 AM16 °FCold.14 mph47%29.98 "HgN/A
1:00 AM18 °FCold.13 mph45%29.95 "HgN/A
12:00 AM21 °FCold.12 mph38%29.93 "HgN/A
11:00 PM
Fri, Mar 27
23 °FCold.13 mph36%29.91 "HgN/A
10:00 PM25 °FChilly.12 mph35%29.89 "HgN/A
9:00 PM27 °FChilly.10 mph34%29.89 "HgN/A
8:00 PM29 °FChilly.10 mph33%29.86 "HgN/A
Weather by CustomWeather, © 2015

See weather overviewHow to use our weather pages